Flag for Barbados Weather past 2 weeks in Bridgetown, Barbados

Now
82 °F

Passing clouds.


Feels Like: 89 °F
Forecast: 82 / 88 °F
Wind: 12 mph from Northeast

Location: Grantley Adams

Current Time: Sep 4, 2015 at 4:56:36 AM

Latest Report: Sep 4, 2015 at 4:00 AM


Visibility: N/A

Pressure: 29.92 "Hg

Humidity: 79%

Dew point: 75 °F

Location of BridgetownLocation

Historic Weather in Bridgetown — Graph

°F

Bridgetown temperature yesterday

Maximum temperature yesterday: 90 °F (at 1:00 PM)
Minimum temperature yesterday: 81 °F (at 2:00 AM)
Average temperature yesterday: 84 °F

Past Weeks' High & Low Weather Summary

 TemperatureHumidityPressure
High90 °F (Aug 20, 1:00 PM)100% (Aug 26, 5:00 AM)30.01 "Hg (Aug 26, 5:00 AM)
Low75 °F (Aug 24, 5:00 AM)59% (Aug 28, 12:00 PM)29.83 "Hg (Aug 23, 4:00 AM)
Average84 °F78%29.92 "Hg
* Reported Aug 20 3:00 AM — Sep 4 3:00 AM, Bridgetown, Weather by CustomWeather, © 2015

Note: Actual official high and low records may vary slightly from our data, if they occured in-between our weather recording intervals... More about our weather records

Advertising

Bridgetown weather history for previous 24 hours

 ConditionsComfort  
Time TempWeatherWind HumidityBarometerVisibility
3:00 AM
Fri, Sep 4
82 °FPassing clouds.13 mph74%29.92 "HgN/A
2:00 AM82 °FPassing clouds.10 mph74%29.92 "HgN/A
1:00 AM82 °FPassing clouds.9 mph79%29.95 "HgN/A
12:00 AM82 °FPassing clouds.9 mph74%29.95 "HgN/A
11:00 PM
Thu, Sep 3
82 °FPassing clouds.10 mph79%29.98 "HgN/A
10:00 PM82 °FPassing clouds.10 mph74%29.98 "HgN/A
9:00 PM82 °FPassing clouds.7 mph79%29.95 "HgN/A
8:00 PM82 °FPassing clouds.8 mph79%29.92 "HgN/A
7:00 PM82 °FPassing clouds.7 mph74%29.92 "HgN/A
6:00 PM84 °FPassing clouds.12 mph70%29.92 "HgN/A
5:00 PM84 °FPassing clouds.15 mph70%29.89 "HgN/A
4:00 PM86 °FPassing clouds.15 mph70%29.89 "HgN/A
3:00 PM88 °FPassing clouds.13 mph66%29.92 "HgN/A
2:00 PM90 °FPassing clouds.14 mph63%29.92 "HgN/A
1:00 PM90 °FPassing clouds.14 mph63%29.95 "HgN/A
12:00 PM88 °FPassing clouds.16 mph70%29.95 "HgN/A
11:00 AM88 °FPassing clouds.14 mph66%29.98 "HgN/A
10:00 AM88 °FPassing clouds.14 mph66%29.92 "HgN/A
9:00 AM86 °FPassing clouds.14 mph70%29.98 "HgN/A
8:00 AM84 °FPassing clouds.13 mph79%29.95 "HgN/A
7:00 AM82 °FPassing clouds.6 mph79%29.95 "HgN/A
6:00 AM81 °FPassing clouds.6 mph84%29.95 "HgN/A
5:00 AM81 °FPassing clouds.6 mph84%29.92 "HgN/A
4:00 AM81 °FPassing clouds.7 mph84%29.92 "HgN/A
Weather by CustomWeather, © 2015

See weather overviewHow to use our weather pages